Location: Gold Fund Mine
(38.3819°N, 119.0996°W)
Time: 22:50:12
(UTC+00:00)

Cosmos 1733 Rocket - Pass Details

Date: 18 September 2020
Orbit: 602 x 629 km, 82.5° (Epoch: 20 October)

Event Time Altitude Azimuth Distance (km) Brightness Sun altitude
Rises 13:09:55 0° 348° (NNW) 2,883 6.5 -6.9°
Reaches altitude 10° 13:12:10 10° 346° (NNW) 1,970 5.6 -6.5°
Maximum altitude 13:16:28 62° 266° (W) 687 3.0 -5.7°
Drops below altitude 10° 13:20:42 10° 186° (S) 1,943 5.5 -4.8°
Sets 13:22:54 0° 182° (S) 2,839 6.4 -4.4°
